Vorticity
3 1 8 3 6 6 6 5 6 6 7 10 9 7 13 4 3 4 7 6 7 7 9 6 5 4 4 5 4 4 3 1 2
5 4 5 3 -1 9 9 6 5 6 8 7 11 6 7 3 4 5 6 6 7 9 7 3 5 3 6 5 4 3 3 3 2
7 6 2 0 -4 3 11 7 6 6 7 6 7 10 7 4 5 3 4 6 4 3 2 6 6 5 4 2 2 3 3 4 2
4 7 -2 -2 4 8 0 8 6 6 6 7 4 5 9 8 6 5 6 5 4 7 6 6 7 8 9 10 15 3 2 3 3
17 6 1 -5 2 5 9 -11 8 5 6 5 1 5 0 8 8 7 5 5 6 6 2 -1 0 1 3 5 8 13 5 3 4
4 14 12 0 -5 -8 1 15 4 9 9 7 3 5 -2 -2 2 2 5 8 8 7 -0 -4 3 3 2 3 3 5 8 10 9
10 3 9 17 3 10 11 5 7 -5 1 9 5 1 3 5 12 5 5 3 6 9 6 4 2 3 3 1 4 6 3 7 6
8 7 4 8 14 7 7 10 15 3 5 8 6 6 6 6 9 8 9 7 3 3 2 6 3 6 5 5 2 7 8 5 6
14 10 6 1 3 12 11 6 7 11 2 6 5 7 2 9 9 7 6 9 8 5 5 3 6 1 4 4 7 5 4 8 6
11 10 15 9 6 4 7 7 5 1 6 6 1 -1 2 -5 10 9 3 3 5 6 7 7 8 9 7 8 7 6 7 7 7
14 13 12 17 9 5 1 9 10 -1 3 16 6 12 9 -20 2 5 5 7 -1 5 6 6 8 6 6 10 8 9 6 7 7
15 14 13 13 18 13 7 -2 -8 9 35 26 -12 12 25 -9 18 19 -19 20 -14 27 3 3 8 5 5 8 8 7 7 4 6
16 16 16 13 15 19 16 9 10 7 8 -5 7 22 -12 9 20 7 -0 10 64 -10 31 28 7 2 10 6 6 1 7 4 7
11 11 14 17 12 20 20 22 19 10 6 3 -2 7 8 -7 6 17 23 17 2 6 32 14 -41 -3 23 6 5 10 4 7 8
8 8 8 9 10 11 12 10 14 23 28 27 19 19 15 18 5 -11 1 24 8 2 19 0 7 9 18 11 6 6 4 10 3
7 7 7 8 9 9 9 10 12 9 7 6 13 18 19 25 14 11 13 7 2 -2 11 -7 4 9 13 16 4 28 20 -12 12
1 2 3 4 8 10 10 8 11 9 8 10 15 14 11 6 10 15 15 6 7 8 10 19 14 11 2 2 3 0 -2 -1 11
3 2 3 4 3 3 4 11 13 10 11 10 8 13 11 18 18 17 10 17 24 10 2 7 10 5 7 12 8 -7 20 13 19
8 6 6 5 6 6 5 7 11 12 10 12 9 9 11 11 17 8 11 5 5 15 19 11 6 4 9 0 2 8 -5 -5 15
6 7 6 6 7 6 6 7 8 10 10 8 12 12 9 8 12 17 11 13 4 12 13 20 17 13 3 -10 1 11 -6 -10 16
Height
3126 3127 3128 3129 3130 3130 3131 3131 3132 3132 3133 3132 3132 3133 3135 3136 3137 3138 3140 3142 3143 3145 3146 3148 3149 3152 3153 3155 3156 3158 3161 3162 3163
3123 3124 3125 3126 3127 3127 3128 3128 3129 3130 3130 3130 3131 3132 3134 3133 3136 3137 3139 3140 3142 3143 3145 3147 3149 3151 3152 3154 3155 3157 3159 3161 3162
3119 3121 3122 3122 3124 3125 3125 3125 3126 3127 3128 3129 3130 3131 3132 3133 3134 3135 3137 3139 3140 3142 3144 3146 3147 3150 3150 3152 3154 3156 3157 3159 3161
3114 3116 3117 3118 3119 3121 3122 3123 3123 3125 3126 3127 3128 3128 3130 3131 3132 3134 3136 3137 3138 3140 3142 3143 3145 3147 3149 3150 3152 3153 3155 3157 3159
3109 3111 3112 3114 3116 3118 3119 3120 3121 3120 3123 3124 3125 3126 3126 3129 3130 3132 3133 3136 3137 3139 3140 3141 3143 3145 3147 3148 3149 3151 3153 3155 3157
3103 3105 3107 3109 3111 3112 3114 3115 3117 3117 3119 3120 3121 3122 3124 3126 3127 3129 3130 3132 3134 3136 3138 3139 3141 3142 3144 3146 3147 3148 3150 3152 3154
3099 3099 3101 3103 3105 3106 3107 3108 3109 3110 3113 3116 3117 3119 3120 3122 3125 3125 3126 3129 3130 3132 3134 3136 3138 3139 3141 3142 3144 3145 3147 3148 3150
3091 3093 3095 3097 3099 3101 3101 3102 3102 3102 3106 3110 3112 3114 3116 3117 3119 3120 3123 3124 3126 3127 3129 3131 3133 3135 3137 3139 3140 3142 3143 3144 3146
3085 3087 3089 3092 3094 3095 3096 3098 3097 3095 3100 3103 3106 3109 3111 3113 3114 3116 3118 3120 3121 3122 3123 3125 3127 3129 3132 3134 3136 3138 3140 3141 3143
3080 3081 3083 3085 3088 3090 3091 3092 3093 3093 3096 3097 3100 3103 3105 3108 3108 3111 3111 3113 3115 3116 3118 3120 3122 3124 3126 3129 3132 3133 3135 3137 3138
3075 3075 3076 3078 3080 3083 3085 3086 3088 3090 3090 3092 3092 3095 3098 3100 3101 3102 3106 3107 3109 3111 3112 3115 3117 3119 3121 3123 3126 3128 3130 3132 3133
3072 3072 3072 3073 3075 3077 3079 3079 3082 3079 3082 3084 3084 3087 3089 3092 3094 3094 3086 3098 3099 3100 3105 3107 3110 3112 3115 3117 3120 3121 3124 3125 3127
3069 3068 3069 3069 3070 3070 3072 3073 3075 3076 3074 3078 3075 3081 3085 3085 3087 3089 3087 3078 3086 3091 3096 3100 3100 3103 3107 3110 3112 3115 3117 3119 3121
3067 3066 3065 3065 3066 3066 3065 3066 3068 3069 3068 3068 3071 3072 3077 3078 3080 3083 3080 3083 3084 3086 3090 3091 3093 3096 3100 3102 3105 3108 3111 3113 3115
3066 3065 3064 3062 3062 3061 3061 3060 3060 3059 3061 3062 3062 3064 3066 3069 3070 3072 3072 3073 3073 3074 3074 3081 3086 3089 3091 3094 3095 3099 3103 3105 3108
3065 3064 3063 3061 3060 3058 3057 3056 3055 3053 3053 3054 3055 3056 3059 3060 3061 3064 3068 3068 3071 3073 3073 3076 3078 3082 3084 3086 3086 3090 3093 3095 3098
3062 3060 3059 3058 3057 3056 3054 3052 3051 3049 3047 3046 3047 3048 3052 3051 3054 3058 3059 3057 3060 3061 3063 3065 3067 3070 3072 3073 3077 3080 3083 3087 3090
3058 3056 3054 3053 3051 3050 3049 3048 3046 3044 3042 3040 3039 3039 3040 3043 3044 3046 3046 3047 3048 3051 3054 3057 3059 3061 3063 3066 3068 3071 3074 3078 3082
3053 3052 3050 3048 3045 3043 3041 3041 3040 3038 3037 3036 3034 3032 3031 3032 3035 3036 3037 3038 3038 3041 3043 3046 3050 3053 3054 3055 3057 3060 3063 3066 3069
3048 3046 3044 3042 3040 3038 3035 3034 3033 3032 3030 3029 3028 3027 3025 3024 3024 3028 3028 3029 3032 3033 3035 3037 3039 3041 3042 3043 3046 3048 3052 3054 3057